Showing default

AEROCUBE 6A, 40045

Orbit data source: Space-Track

AEROCUBE 6A, 40045 is a payload satellite owned by AERO (US) in SSO that was launched on Thu, 19 Jun 2014 UTC via a DNEPR launch vehicle from the Orenburg, Russia (OREN). Payload-class satellites include a variety of spacecraft equipped with specific instruments for various scientific and technological missions. These include communications satellites like Starlink; space stations such as the ISS; scientific satellites like the Hubble; Earth observation satellites from companies like Planet Labs, Umbra, and HawkEye 360; GPS; miniature CubeSats for education and research; and military/defense satellites.

Loading next visibility...
Identifier
40045, 2014-033AM
Orbit
SSO
Country
Flag of USUS
Related business
Manufacturer
AERO
Mission
Operational Defense Technology
Bus & Motor
CUBESAT 0.5U, Unknown motor
Mass
~0.5 kg wet, ~0.5 kg dry
Launch date (UTC)
2014-06-19 (11 years ago)
Launch vehicle
DNEPR
Launch site
Orenburg, Russia (OREN)
Object type
Payload
Rocket body
Debris
Shape & HBR
Box + 2 Pan, 0.1 m
Radar Cross Section
0.010 m², Small (<0.1 m²)

Expand to show TLE details & history
Last TLE update: 1 day ago

TLE from 1 day ago
0 AEROCUBE 6A
1 40045U 14033AM  25301.39748236  .00009043  00000-0  83077-3 0  9991
2 40045  97.7042 106.6842 0042107  71.4975 289.0814 14.94355705611955
Epoch: 2025-10-28T09:32Z
TLE epoch observation values (Epoch: 2025-10-28T09:32:22.475Z)
Latitude
-0.00006°
Longitude
-73.39499°
Altitude
577.945 km
Speed
7.577 km/s
True Right ascension
07h 06m 44s
True Declination
0° 00' 00"
Sunlit
Object was in daylight at epoch
Visualization orbit readout
Latitude
Unknown
Longitude
Unknown
Altitude
Unknown
Speed
Unknown
Apparent Right ascension
Unknown
Apparent Declination
Unknown
Sunlit
N/A
Visualization observer readout
Local Sidereal Time
09:27:42
Azimuth
Unknown
Elevation
Unknown
Doppler factor
Unknown
Orbital elements
Apogee altitude
610.691 km
Perigee altitude
552.082 km
Semi-major axis
6,959.523 km
Eccentricity
0.00421
Inclination
97.7042°
RAAN
106.6842°
Arg. of periapsis
71.4975°
True anomaly
288.62462°
Mean anomaly
289.0814°
Eccentric anomaly
288.85309°
Mean motion
3.7383 °/min
Orbital period
96.3 mins
BSTAR
0.00083077
Loading maneuver chart data...
Computing Atmospheric mass density...
Loading historical data...
Loading historical data...
Loading historical data...
Loading historical data...
Loading historical data...
Loading historical data...
Loading historical data...

Documentation

Showing up to 5 results
|